TimeEST,TemperatureF,Dew PointF,Humidity,Sea Level PressureIn,VisibilityMPH,Wind Direction,Wind SpeedMPH,Gust SpeedMPH,PrecipitationIn,Events,Conditions,WindDirDegrees,DateUTC
12:15 AM,44.6,-9999,N/A,29.75,10.0,NW,11.5,-,N/A,,Clear,310,2013-02-12 05:15:00
12:35 AM,44.6,-9999,N/A,29.75,10.0,WNW,9.2,-,N/A,,Clear,300,2013-02-12 05:35:00
12:55 AM,42.8,-9999,N/A,29.76,10.0,WNW,5.8,-,N/A,,Clear,290,2013-02-12 05:55:00
1:15 AM,42.8,-9999,N/A,29.76,10.0,West,6.9,-,N/A,,Clear,280,2013-02-12 06:15:00
1:35 AM,42.8,-9999,N/A,29.77,10.0,WNW,9.2,-,N/A,,Clear,290,2013-02-12 06:35:00
1:55 AM,42.8,-9999,N/A,29.77,10.0,WNW,12.7,18.4,N/A,,Clear,290,2013-02-12 06:55:00
2:15 AM,42.8,-9999,N/A,29.77,10.0,West,9.2,-,N/A,,Clear,280,2013-02-12 07:15:00
2:35 AM,42.8,-9999,N/A,29.78,10.0,West,8.1,-,N/A,,Clear,280,2013-02-12 07:35:00
2:55 AM,41.0,-9999,N/A,29.78,10.0,West,6.9,-,N/A,,Clear,270,2013-02-12 07:55:00
3:15 AM,41.0,-9999,N/A,29.79,10.0,West,10.4,-,N/A,,Clear,280,2013-02-12 08:15:00
3:35 AM,39.2,-9999,N/A,29.79,10.0,West,9.2,-,N/A,,Clear,280,2013-02-12 08:35:00
3:55 AM,39.2,-9999,N/A,29.80,10.0,WNW,8.1,-,N/A,,Clear,300,2013-02-12 08:55:00
4:15 AM,39.2,-9999,N/A,29.80,10.0,WNW,12.7,17.3,N/A,,Clear,300,2013-02-12 09:15:00
4:35 AM,39.2,-9999,N/A,29.80,10.0,WNW,11.5,16.1,N/A,,Clear,300,2013-02-12 09:35:00
4:55 AM,39.2,-9999,N/A,29.80,10.0,NW,18.4,27.6,N/A,,Clear,310,2013-02-12 09:55:00
5:15 AM,39.2,-9999,N/A,29.81,10.0,WNW,13.8,18.4,N/A,,Clear,300,2013-02-12 10:15:00
5:35 AM,39.2,-9999,N/A,29.83,10.0,WNW,12.7,18.4,N/A,,Clear,300,2013-02-12 10:35:00
5:55 AM,39.2,-9999,N/A,29.83,10.0,West,12.7,19.6,N/A,,Clear,280,2013-02-12 10:55:00
6:15 AM,39.2,-9999,N/A,29.84,10.0,WNW,15.0,20.7,N/A,,Clear,290,2013-02-12 11:15:00
6:35 AM,39.2,-9999,N/A,29.83,10.0,West,11.5,17.3,N/A,,Clear,270,2013-02-12 11:35:00
6:55 AM,39.2,-9999,N/A,29.84,10.0,WNW,15.0,21.9,N/A,,Clear,290,2013-02-12 11:55:00
7:15 AM,39.2,-9999,N/A,29.84,10.0,West,13.8,19.6,N/A,,Clear,270,2013-02-12 12:15:00
7:35 AM,39.2,-9999,N/A,29.85,10.0,WNW,16.1,25.3,N/A,,Clear,290,2013-02-12 12:35:00
7:55 AM,41.0,-9999,N/A,29.87,10.0,WNW,16.1,26.5,N/A,,Clear,290,2013-02-12 12:55:00
8:15 AM,41.0,-9999,N/A,29.88,10.0,West,18.4,32.2,N/A,,Clear,280,2013-02-12 13:15:00
8:35 AM,42.8,-9999,N/A,29.89,10.0,West,21.9,29.9,N/A,,Mostly Cloudy,280,2013-02-12 13:35:00
8:55 AM,42.8,-9999,N/A,29.89,10.0,West,17.3,26.5,N/A,,Overcast,280,2013-02-12 13:55:00
9:15 AM,42.8,-9999,N/A,29.89,10.0,West,21.9,27.6,N/A,,Scattered Clouds,270,2013-02-12 14:15:00
9:35 AM,-9999,-9999,N/A,29.89,10.0,West,17.3,28.8,N/A,,Clear,270,2013-02-12 14:35:00
9:55 AM,44.6,35.6,71,29.89,10.0,WNW,16.1,27.6,N/A,,Clear,290,2013-02-12 14:55:00
10:15 AM,44.6,12.2,27,29.89,10.0,WNW,18.4,25.3,N/A,,Clear,290,2013-02-12 15:15:00
10:35 AM,44.6,21.2,39,29.90,10.0,WNW,20.7,28.8,N/A,,Clear,290,2013-02-12 15:35:00
10:55 AM,44.6,24.8,46,29.90,10.0,NW,23.0,31.1,N/A,,Partly Cloudy,310,2013-02-12 15:55:00
11:15 AM,44.6,24.8,46,29.91,10.0,WNW,23.0,31.1,N/A,,Partly Cloudy,300,2013-02-12 16:15:00
11:35 AM,46.4,24.8,43,29.92,10.0,NW,21.9,29.9,N/A,,Partly Cloudy,310,2013-02-12 16:35:00
11:55 AM,46.4,24.8,43,29.92,10.0,WNW,23.0,27.6,N/A,,Partly Cloudy,290,2013-02-12 16:55:00
12:15 PM,44.6,24.8,46,29.92,10.0,WNW,18.4,28.8,N/A,,Scattered Clouds,290,2013-02-12 17:15:00
12:35 PM,46.4,24.8,43,29.92,10.0,West,19.6,29.9,N/A,,Partly Cloudy,270,2013-02-12 17:35:00
12:55 PM,46.4,24.8,43,29.91,10.0,WNW,18.4,28.8,N/A,,Clear,300,2013-02-12 17:55:00
1:15 PM,46.4,24.8,43,29.91,10.0,West,18.4,31.1,N/A,,Clear,280,2013-02-12 18:15:00
1:35 PM,46.4,24.8,43,29.91,10.0,WNW,17.3,23.0,N/A,,Clear,300,2013-02-12 18:35:00
1:55 PM,46.4,24.8,43,29.90,10.0,WNW,20.7,26.5,N/A,,Clear,300,2013-02-12 18:55:00
2:15 PM,46.4,24.8,43,29.90,10.0,WNW,15.0,28.8,N/A,,Clear,290,2013-02-12 19:15:00
2:35 PM,46.4,24.8,43,29.90,10.0,WNW,18.4,23.0,N/A,,Clear,290,2013-02-12 19:35:00
2:55 PM,46.4,24.8,43,29.89,10.0,NW,16.1,24.2,N/A,,Clear,310,2013-02-12 19:55:00
3:15 PM,46.4,24.8,43,29.89,10.0,NW,13.8,25.3,N/A,,Clear,310,2013-02-12 20:15:00
3:35 PM,44.6,24.8,46,29.89,10.0,NW,16.1,19.6,N/A,,Clear,310,2013-02-12 20:35:00
3:55 PM,44.6,24.8,46,29.87,10.0,NW,13.8,-,N/A,,Clear,310,2013-02-12 20:55:00
4:15 PM,44.6,24.8,46,29.83,10.0,WNW,13.8,-,N/A,,Clear,300,2013-02-12 21:15:00
4:35 PM,42.8,24.8,49,29.85,10.0,NW,12.7,19.6,N/A,,Clear,310,2013-02-12 21:35:00
4:55 PM,42.8,24.8,49,29.89,10.0,WNW,15.0,-,N/A,,Clear,290,2013-02-12 21:55:00
5:15 PM,42.8,24.8,49,29.94,10.0,West,11.5,-,N/A,,Clear,270,2013-02-12 22:15:00
5:35 PM,41.0,24.8,53,29.96,10.0,WNW,12.7,20.7,N/A,,Clear,290,2013-02-12 22:35:00
5:55 PM,39.2,24.8,56,29.96,10.0,WNW,10.4,18.4,N/A,,Clear,300,2013-02-12 22:55:00
6:15 PM,39.2,24.8,56,29.97,10.0,WNW,9.2,-,N/A,,Clear,300,2013-02-12 23:15:00
6:35 PM,39.2,24.8,56,29.97,10.0,WNW,12.7,-,N/A,,Clear,300,2013-02-12 23:35:00
6:55 PM,39.2,24.8,56,29.98,10.0,WNW,8.1,-,N/A,,Clear,300,2013-02-12 23:55:00
7:15 PM,37.4,24.8,60,29.98,10.0,WNW,8.1,-,N/A,,Clear,300,2013-02-13 00:15:00
7:35 PM,37.4,24.8,60,29.97,10.0,NW,8.1,-,N/A,,Clear,310,2013-02-13 00:35:00
7:55 PM,37.4,23.0,56,29.98,10.0,WNW,8.1,-,N/A,,Clear,300,2013-02-13 00:55:00
8:15 PM,37.4,24.8,60,29.96,10.0,WNW,5.8,-,N/A,,Clear,300,2013-02-13 01:15:00
8:35 PM,35.6,24.8,65,29.96,10.0,WNW,4.6,-,N/A,,Clear,300,2013-02-13 01:35:00
8:55 PM,35.6,23.0,60,29.95,10.0,NW,4.6,-,N/A,,Clear,310,2013-02-13 01:55:00
9:15 PM,35.6,23.0,60,29.93,10.0,NW,4.6,-,N/A,,Clear,310,2013-02-13 02:15:00
9:35 PM,35.6,23.0,60,29.93,10.0,WNW,4.6,-,N/A,,Clear,300,2013-02-13 02:35:00
9:55 PM,33.8,24.8,70,29.93,10.0,SW,6.9,-,N/A,,Clear,220,2013-02-13 02:55:00
10:15 PM,33.8,23.0,65,29.94,10.0,SW,6.9,-,N/A,,Clear,220,2013-02-13 03:15:00
10:35 PM,33.8,24.8,70,29.95,10.0,WSW,4.6,-,N/A,,Clear,240,2013-02-13 03:35:00
10:55 PM,33.8,24.8,70,29.95,10.0,SW,5.8,-,N/A,,Clear,230,2013-02-13 03:55:00
11:15 PM,33.8,24.8,70,29.95,10.0,SW,5.8,-,N/A,,Clear,230,2013-02-13 04:15:00
11:35 PM,32.0,24.8,75,29.95,10.0,West,3.5,-,N/A,,Clear,260,2013-02-13 04:35:00
11:55 PM,32.0,24.8,75,29.96,10.0,West,4.6,-,N/A,,Clear,260,2013-02-13 04:55:00